Tracking 23645 objects as of 21-Sep-2021
HD Live streaming from Space Station
objects crossing your sky now

GAOFEN 9 03

Track GAOFEN 9 03 now!
10-day predictions


NORAD ID: 45794
Int'l Code: 2020-039A
Perigee: 492.9 km
Apogee: 511.4 km
Inclination: 97.4 °
Period: 94.5 minutes
Semi major axis: 6873 km
RCS: Unknown
Launch date: June 17, 2020
Source: People's Republic of China (PRC)
Launch site: Jiuquan Satellite Launch Center, China (JSC)
aabbcc
Your satellite tracking list
Your tracking list is empty




NASA's NSSDC Master Catalog

Two Line Element Set (TLE):
1 45794U 20039A   21264.58360277  .00001239  00000-0  54619-4 0  9990
2 45794  97.3674  22.4761 0013424 103.3625 313.8841 15.23586722 70234
Source of the keplerian elements: AFSPC